When you browse on this site, cookies collect data to enhance your experience and personalize the content and advertising you see.
Visit our Privacy Policy to learn more. By continuing to use the site, you agree to this use of cookies and data.
  • In Netherlands
  • List of Countries
  • For 7 days
  • Water Temperature
  • Weather Map
  • Weather Widgets
  • user-avatar
    Login

    Hourly Weather Hamagib

    Today, 25 January, Saturday

    Time Temperature Precipitation Wind Pressure Humidity
    00:00 -14°C° 0 mm 2 mps 647 mmHg 60%
    01:00 -14°C° 0 mm 2 mps 647 mmHg 56%
    02:00 -13°C° 0 mm 2 mps 647 mmHg 53%
    03:00 -13°C° 0 mm 2 mps 647 mmHg 49%
    04:00 -13°C° 0 mm 2 mps 647 mmHg 47%
    05:00 -12°C° 0 mm 2 mps 647 mmHg 45%
    06:00 -12°C° 0 mm 2 mps 647 mmHg 43%
    07:00 -10°C° 0 mm 2 mps 647 mmHg 45%
    08:00 -9°C° 0 mm 2 mps 648 mmHg 48%
    09:00 -7°C° 0 mm 2 mps 648 mmHg 50%
    10:00 -6°C° 0 mm 2 mps 648 mmHg 50%
    11:00 -4°C° 0 mm 2 mps 648 mmHg 50%
    12:00 -1°C° 0 mm 1 mps 648 mmHg 49%
    13:00 0°C° 0 mm 1 mps 648 mmHg 55%
    14:00 0°C° 0 mm 1 mps 647 mmHg 60%
    15:00 +1°C° 0 mm 1 mps 647 mmHg 66%
    16:00 -1°C° 0 mm 1 mps 647 mmHg 64%
    17:00 -2°C° 0 mm 1 mps 646 mmHg 62%
    18:00 -3°C° 0 mm 1 mps 646 mmHg 60%
    19:00 -3°C° 0 mm 1 mps 646 mmHg 60%
    20:00 -3°C° 0 mm 1 mps 646 mmHg 60%
    21:00 -4°C° 0 mm 2 mps 645 mmHg 60%
    22:00 -4°C° 0 mm 2 mps 645 mmHg 60%
    23:00 -5°C° 0 mm 2 mps 645 mmHg 60%

    Tomorrow, 26 January, Sunday

    Time Temperature Precipitation Wind Pressure Humidity
    00:00 -5°C° 0 mm 2 mps 645 mmHg 59%
    01:00 -5°C° 0 mm 2 mps 645 mmHg 58%
    02:00 -4°C° 0 mm 2 mps 644 mmHg 57%
    03:00 -4°C° 0 mm 2 mps 644 mmHg 56%
    04:00 -5°C° 0 mm 2 mps 644 mmHg 55%
    05:00 -5°C° 0 mm 2 mps 644 mmHg 55%
    06:00 -5°C° 0 mm 2 mps 644 mmHg 54%
    07:00 -4°C° 0 mm 2 mps 644 mmHg 55%
    08:00 0°C° 0 mm 1 mps 645 mmHg 56%
    09:00 +1°C° 0 mm 1 mps 646 mmHg 58%
    10:00 +2°C° 0 mm 1 mps 646 mmHg 59%
    11:00 +3°C° 0 mm 1 mps 646 mmHg 61%
    12:00 +4°C° 0 mm 1 mps 646 mmHg 62%
    13:00 +3°C° 0 mm 1 mps 646 mmHg 67%
    14:00 +3°C° 0 mm 1 mps 646 mmHg 71%
    15:00 +2°C° 0 mm 1 mps 646 mmHg 76%
    16:00 0°C° 0 mm 1 mps 646 mmHg 79%
    17:00 -3°C° 0 mm 2 mps 646 mmHg 82%
    18:00 -5°C° 0 mm 2 mps 646 mmHg 85%
    19:00 -5°C° 0 mm 2 mps 646 mmHg 82%
    20:00 -5°C° 0 mm 2 mps 647 mmHg 80%
    21:00 -5°C° 0 mm 2 mps 647 mmHg 78%
    22:00 -5°C° 0 mm 2 mps 647 mmHg 76%
    23:00 -6°C° 0 mm 2 mps 647 mmHg 75%

    Day after tomorrow, 27 January, Monday

    Time Temperature Precipitation Wind Pressure Humidity
    00:00 -4°C° 0 mm 1 mps 647 mmHg 73%
    01:00 -4°C° 0 mm 1 mps 648 mmHg 73%
    02:00 -4°C° 0 mm 1 mps 648 mmHg 72%
    03:00 -4°C° 0 mm 1 mps 648 mmHg 72%
    04:00 -4°C° 0 mm 1 mps 648 mmHg 71%
    05:00 -4°C° 0 mm 1 mps 649 mmHg 70%
    06:00 -4°C° 0 mm 1 mps 649 mmHg 69%
    07:00 -3°C° 0 mm 1 mps 649 mmHg 69%
    08:00 -2°C° 0 mm 1 mps 650 mmHg 68%
    09:00 -1°C° 0 mm 1 mps 651 mmHg 67%
    10:00 0°C° 0 mm 1 mps 651 mmHg 65%
    11:00 +1°C° 0 mm 1 mps 651 mmHg 63%
    12:00 +2°C° 0 mm 1 mps 651 mmHg 61%
    13:00 +3°C° 0 mm 1 mps 651 mmHg 64%
    14:00 +3°C° 0 mm 1 mps 650 mmHg 67%
    15:00 +2°C° 0 mm 0 mps 650 mmHg 71%
    16:00 +2°C° 0 mm 1 mps 650 mmHg 69%
    17:00 0°C° 0 mm 1 mps 649 mmHg 68%
    18:00 -1°C° 0 mm 1 mps 649 mmHg 67%
    19:00 -3°C° 0 mm 2 mps 649 mmHg 64%
    20:00 -3°C° 0 mm 2 mps 649 mmHg 60%
    21:00 -3°C° 0 mm 2 mps 649 mmHg 56%
    22:00 -3°C° 0 mm 2 mps 649 mmHg 54%
    23:00 -3°C° 0 mm 2 mps 648 mmHg 52%

    28 January, Tuesday

    Time Temperature Precipitation Wind Pressure Humidity
    00:00 -3°C° 0 mm 2 mps 648 mmHg 51%
    01:00 -3°C° 0 mm 2 mps 648 mmHg 49%
    02:00 -3°C° 0 mm 2 mps 647 mmHg 48%
    03:00 -3°C° 0 mm 2 mps 647 mmHg 47%
    04:00 -4°C° 0 mm 2 mps 647 mmHg 46%
    05:00 -4°C° 0 mm 2 mps 647 mmHg 46%
    06:00 -4°C° 0 mm 2 mps 647 mmHg 46%
    07:00 -3°C° 0 mm 2 mps 647 mmHg 48%
    08:00 -2°C° 0 mm 2 mps 647 mmHg 50%
    09:00 -1°C° 0 mm 2 mps 647 mmHg 52%
    10:00 +1°C° 0 mm 2 mps 647 mmHg 54%
    11:00 +4°C° 0 mm 1 mps 647 mmHg 56%
    12:00 +6°C° 0 mm 1 mps 647 mmHg 58%
    13:00 +5°C° 0 mm 1 mps 647 mmHg 58%
    14:00 +5°C° 0 mm 1 mps 646 mmHg 59%
    15:00 +5°C° 0 mm 1 mps 646 mmHg 59%
    16:00 +3°C° 0 mm 2 mps 645 mmHg 58%
    17:00 +2°C° 0 mm 2 mps 645 mmHg 57%
    18:00 +1°C° 0 mm 2 mps 644 mmHg 55%
    19:00 0°C° 0 mm 3 mps 644 mmHg 53%
    20:00 -1°C° 0 mm 3 mps 644 mmHg 51%
    21:00 -1°C° 0 mm 3 mps 644 mmHg 49%
    22:00 -1°C° 0 mm 3 mps 644 mmHg 48%
    23:00 -1°C° 0 mm 3 mps 643 mmHg 48%

    29 January, Wednesday

    Time Temperature Precipitation Wind Pressure Humidity
    00:00 -1°C° 0 mm 3 mps 643 mmHg 47%
    01:00 -1°C° 0 mm 3 mps 643 mmHg 48%
    02:00 -1°C° 0 mm 3 mps 642 mmHg 48%
    03:00 -1°C° 0 mm 3 mps 642 mmHg 49%
    04:00 -1°C° 0 mm 3 mps 642 mmHg 49%
    05:00 -1°C° 0 mm 3 mps 642 mmHg 49%
    06:00 -1°C° 0 mm 3 mps 642 mmHg 49%
    07:00 +1°C° 0 mm 2 mps 642 mmHg 51%
    08:00 +1°C° 0 mm 2 mps 643 mmHg 53%
    09:00 +1°C° 0 mm 2 mps 643 mmHg 55%
    10:00 +3°C° 0 mm 2 mps 643 mmHg 56%
    11:00 +5°C° 0 mm 1 mps 643 mmHg 57%
    12:00 +6°C° 0 mm 1 mps 643 mmHg 58%
    13:00 +6°C° 0 mm 1 mps 643 mmHg 61%
    14:00 +5°C° 0 mm 1 mps 643 mmHg 63%
    15:00 +5°C° 0 mm 1 mps 643 mmHg 66%
    16:00 +4°C° 0 mm 1 mps 643 mmHg 66%
    17:00 +3°C° 0 mm 1 mps 643 mmHg 67%
    18:00 +2°C° 0 mm 1 mps 643 mmHg 67%
    19:00 +2°C° 0 mm 1 mps 643 mmHg 66%
    20:00 -1°C° 0 mm 2 mps 643 mmHg 64%
    21:00 -1°C° 0 mm 2 mps 643 mmHg 63%
    22:00 -1°C° 0 mm 2 mps 643 mmHg 63%
    23:00 -1°C° 0 mm 2 mps 643 mmHg 63%

    30 January, Thursday

    Time Temperature Precipitation Wind Pressure Humidity
    00:00 -2°C° 0 mm 2 mps 643 mmHg 63%
    01:00 -2°C° 0 mm 2 mps 643 mmHg 64%
    02:00 -2°C° 0 mm 2 mps 643 mmHg 65%
    03:00 -2°C° 0 mm 2 mps 643 mmHg 66%
    04:00 -2°C° 0 mm 2 mps 643 mmHg 67%
    05:00 -3°C° 0 mm 2 mps 643 mmHg 68%
    06:00 -3°C° 0 mm 2 mps 643 mmHg 68%
    07:00 -2°C° 0 mm 2 mps 643 mmHg 68%
    08:00 -1°C° 0 mm 2 mps 644 mmHg 68%
    09:00 +1°C° 0 mm 2 mps 644 mmHg 67%
    10:00 +3°C° 0 mm 1 mps 644 mmHg 65%
    11:00 +4°C° 0 mm 1 mps 644 mmHg 63%
    12:00 +5°C° 0 mm 1 mps 644 mmHg 61%
    13:00 +5°C° 0 mm 1 mps 644 mmHg 61%
    14:00 +6°C° 0 mm 1 mps 644 mmHg 62%
    15:00 +6°C° 0 mm 1 mps 644 mmHg 62%
    16:00 +4°C° 0 mm 1 mps 644 mmHg 64%
    17:00 +2°C° 0 mm 2 mps 643 mmHg 66%
    18:00 +1°C° 0 mm 2 mps 643 mmHg 67%
    19:00 +1°C° 0 mm 2 mps 643 mmHg 66%
    20:00 -1°C° 0 mm 2 mps 643 mmHg 64%
    21:00 -1°C° 0 mm 3 mps 642 mmHg 62%
    22:00 -1°C° 0 mm 3 mps 642 mmHg 61%
    23:00 -1°C° 0 mm 3 mps 641 mmHg 61%
    Show more